SFR1EU FACT-FAPE

Flight info

Callsign SFR1EU
Flight time 0h 57m
Altitude 35000
Route OKTED UQ12 XUGOL UQ56 OKSET DCT PEV
Aircraft B738/M-SDE2E3FGHIRWXY/LB1

Departure

Time 2026-05-04 06:25
Airport Cape Town International Airport (FACT)

Arrival

Time 2026-05-04 07:23
Airport Chief Dawid Stuurman International Airport (FAPE)
Time Latitude Longitude Altitude Speed Heading
2026-05-04 06:03 -33.97293 18.60116 153 ft 0 kts 75°
2026-05-04 06:20 -33.97276 18.60010 153 ft 0 kts 166°
2026-05-04 06:21 -33.97277 18.60010 153 ft 1 kts 166°
2026-05-04 06:21 -33.97308 18.60019 153 ft 8 kts 166°
2026-05-04 06:22 -33.97368 18.60039 153 ft 10 kts 165°
2026-05-04 06:22 -33.97452 18.60067 153 ft 16 kts 163°
2026-05-04 06:25 -33.97044 18.60345 332 ft 153 kts 348°
2026-05-04 06:25 -33.96016 18.60042 1092 ft 155 kts 341°
2026-05-04 06:26 -33.94878 18.59745 1293 ft 190 kts 344°
2026-05-04 06:26 -33.93618 18.59424 1659 ft 176 kts 343°
2026-05-04 06:26 -33.92304 18.59408 2046 ft 211 kts 11°
2026-05-04 06:26 -33.90985 18.60404 2297 ft 242 kts 46°
2026-05-04 06:27 -33.92124 18.68809 4838 ft 291 kts 121°
2026-05-04 06:28 -33.93116 18.70931 5623 ft 298 kts 120°
2026-05-04 06:28 -33.94141 18.73128 6447 ft 303 kts 120°
2026-05-04 06:28 -33.95230 18.75349 7116 ft 315 kts 127°
2026-05-04 06:28 -33.96716 18.77286 7984 ft 316 kts 136°
2026-05-04 06:29 -33.98275 18.79182 8741 ft 320 kts 134°
2026-05-04 06:29 -33.99778 18.81192 9539 ft 327 kts 129°
2026-05-04 06:29 -34.01151 18.83412 10246 ft 333 kts 122°
2026-05-04 06:29 -34.02384 18.85897 10548 ft 357 kts 116°
2026-05-04 06:30 -34.03509 18.88680 10714 ft 380 kts 109°
2026-05-04 06:30 -34.04547 18.91679 11048 ft 391 kts 108°
2026-05-04 06:30 -34.05494 18.94710 11763 ft 393 kts 106°
2026-05-04 06:30 -34.06389 18.97846 12538 ft 396 kts 104°
2026-05-04 06:31 -34.07230 19.01021 13446 ft 399 kts 101°
2026-05-04 06:31 -34.08179 19.04217 14087 ft 410 kts 111°
2026-05-04 06:31 -34.09254 19.07427 14600 ft 414 kts 104°
2026-05-04 06:31 -34.10121 19.10773 15121 ft 420 kts 101°
2026-05-04 06:32 -34.10951 19.14177 15682 ft 425 kts 102°
2026-05-04 06:33 -34.17529 19.39110 19281 ft 464 kts 103°
2026-05-04 06:34 -34.18531 19.42837 19744 ft 470 kts 103°
2026-05-04 06:34 -34.19545 19.46619 20152 ft 476 kts 103°
2026-05-04 06:34 -34.20565 19.50428 20720 ft 477 kts 103°
2026-05-04 06:34 -34.21436 19.54300 21133 ft 477 kts 94°
2026-05-04 06:35 -34.21822 19.58257 21624 ft 471 kts 84°
2026-05-04 06:36 -34.19928 19.86066 24875 ft 475 kts 75°
2026-05-04 06:37 -34.19656 19.90016 25191 ft 480 kts 75°
2026-05-04 06:37 -34.19372 19.94057 25447 ft 485 kts 75°
2026-05-04 06:37 -34.19085 19.98136 25808 ft 488 kts 75°
2026-05-04 06:37 -34.18809 20.02061 26184 ft 490 kts 75°
2026-05-04 06:38 -34.18520 20.06171 26574 ft 491 kts 75°
2026-05-04 06:38 -34.18229 20.10290 26893 ft 494 kts 75°
2026-05-04 06:40 -34.18109 20.40099 29039 ft 521 kts 83°
2026-05-04 06:40 -34.18252 20.44482 29330 ft 523 kts 83°
2026-05-04 06:40 -34.18378 20.48888 29557 ft 525 kts 83°
2026-05-04 06:40 -34.18492 20.53297 29863 ft 526 kts 83°
2026-05-04 06:41 -34.18598 20.57729 30120 ft 528 kts 83°
2026-05-04 06:41 -34.18700 20.62162 30387 ft 528 kts 83°
2026-05-04 06:41 -34.18802 20.66601 30701 ft 528 kts 83°
2026-05-04 06:41 -34.18904 20.71031 31020 ft 528 kts 83°
2026-05-04 06:42 -34.19005 20.75464 31321 ft 527 kts 83°
2026-05-04 06:42 -34.19105 20.79891 31620 ft 528 kts 82°
2026-05-04 06:42 -34.19202 20.84343 31787 ft 530 kts 82°
2026-05-04 06:44 -34.19841 21.15155 33693 ft 528 kts 82°
2026-05-04 06:44 -34.19927 21.19584 33981 ft 527 kts 82°
2026-05-04 06:44 -34.20012 21.24015 34235 ft 526 kts 82°
2026-05-04 06:45 -34.20092 21.28429 34482 ft 525 kts 82°
2026-05-04 06:45 -34.20166 21.32838 34685 ft 525 kts 82°
2026-05-04 06:45 -34.20244 21.37253 34864 ft 527 kts 82°
2026-05-04 06:45 -34.20333 21.41687 34924 ft 529 kts 82°
2026-05-04 06:46 -34.20480 21.50608 34929 ft 530 kts 82°
2026-05-04 06:46 -34.20609 21.59476 34913 ft 525 kts 82°
2026-05-04 06:48 -34.21110 21.94531 34916 ft 520 kts 81°
2026-05-04 06:50 -34.21511 22.29457 34914 ft 526 kts 82°
2026-05-04 06:51 -34.21599 22.38317 34913 ft 528 kts 82°
2026-05-04 06:51 -34.21675 22.47192 34877 ft 528 kts 81°
2026-05-04 06:52 -34.21746 22.56069 34904 ft 528 kts 82°
2026-05-04 06:52 -34.21818 22.64933 34909 ft 528 kts 82°
2026-05-04 06:53 -34.21883 22.73806 34906 ft 527 kts 82°
2026-05-04 06:53 -34.21938 22.82593 34893 ft 526 kts 81°
2026-05-04 06:54 -34.21987 22.91430 34904 ft 526 kts 81°
2026-05-04 06:54 -34.22030 23.00161 34905 ft 525 kts 81°
2026-05-04 06:55 -34.22046 23.04518 34426 ft 532 kts 81°
2026-05-04 06:55 -34.22062 23.08989 33880 ft 530 kts 81°
2026-05-04 06:55 -34.22079 23.13447 33174 ft 530 kts 81°
2026-05-04 06:55 -34.22095 23.17900 32539 ft 528 kts 81°
2026-05-04 06:56 -34.22111 23.22324 32030 ft 524 kts 81°
2026-05-04 06:57 -34.22169 23.52064 28856 ft 488 kts 82°
2026-05-04 06:58 -34.22170 23.56148 28402 ft 483 kts 82°
2026-05-04 06:58 -34.22169 23.60190 27950 ft 478 kts 81°
2026-05-04 06:58 -34.22166 23.64183 27505 ft 474 kts 81°
2026-05-04 06:58 -34.22164 23.66814 27209 ft 471 kts 81°
2026-05-04 06:59 -34.22159 23.70757 26773 ft 467 kts 81°
2026-05-04 06:59 -34.22153 23.74664 26344 ft 463 kts 81°
2026-05-04 06:59 -34.22147 23.78536 25902 ft 458 kts 82°
2026-05-04 06:59 -34.22141 23.82368 25489 ft 455 kts 82°
2026-05-04 07:01 -34.22053 24.08377 22440 ft 436 kts 82°
2026-05-04 07:01 -34.22037 24.12025 22046 ft 432 kts 82°
2026-05-04 07:02 -34.22022 24.15647 21623 ft 429 kts 83°
2026-05-04 07:02 -34.22007 24.19240 21212 ft 426 kts 82°
2026-05-04 07:02 -34.21990 24.22806 20804 ft 423 kts 83°
2026-05-04 07:02 -34.21972 24.26347 20397 ft 420 kts 83°
2026-05-04 07:03 -34.21952 24.29871 19988 ft 418 kts 83°
2026-05-04 07:03 -34.21931 24.33391 19590 ft 416 kts 83°
2026-05-04 07:03 -34.21908 24.36878 19185 ft 414 kts 83°
2026-05-04 07:03 -34.21883 24.40351 18767 ft 413 kts 83°
2026-05-04 07:04 -34.21859 24.43811 18365 ft 412 kts 84°
2026-05-04 07:04 -34.21834 24.47268 17922 ft 411 kts 84°
2026-05-04 07:04 -34.21808 24.50666 17494 ft 408 kts 84°
2026-05-04 07:04 -34.21782 24.54128 17071 ft 406 kts 84°
2026-05-04 07:05 -34.21756 24.57484 16671 ft 403 kts 84°
2026-05-04 07:05 -34.21728 24.60855 16273 ft 400 kts 84°
2026-05-04 07:05 -34.21590 24.64186 15874 ft 393 kts 76°
2026-05-04 07:05 -34.21010 24.67357 15627 ft 381 kts 68°
2026-05-04 07:06 -34.19585 24.73451 15000 ft 374 kts 67°
2026-05-04 07:06 -34.18875 24.76466 14631 ft 372 kts 68°
2026-05-04 07:06 -34.18171 24.79470 14251 ft 370 kts 68°
2026-05-04 07:07 -34.17476 24.82462 13848 ft 370 kts 68°
2026-05-04 07:08 -34.11247 25.01958 11222 ft 343 kts 50°
2026-05-04 07:09 -34.09985 25.04402 10882 ft 341 kts 50°
2026-05-04 07:09 -34.08747 25.06789 10601 ft 337 kts 50°
2026-05-04 07:09 -34.07521 25.09158 10463 ft 328 kts 50°
2026-05-04 07:09 -34.06331 25.11471 10311 ft 321 kts 50°
2026-05-04 07:10 -34.05178 25.13731 10174 ft 312 kts 50°
2026-05-04 07:10 -34.04058 25.15942 10037 ft 305 kts 50°
2026-05-04 07:12 -33.96123 25.31323 7468 ft 305 kts 50°
2026-05-04 07:12 -33.94998 25.33459 7111 ft 299 kts 50°
2026-05-04 07:12 -33.93899 25.35524 6758 ft 294 kts 50°
2026-05-04 07:12 -33.92807 25.37576 6399 ft 288 kts 50°
2026-05-04 07:13 -33.91732 25.39586 6037 ft 284 kts 50°
2026-05-04 07:13 -33.90668 25.41563 5650 ft 279 kts 50°
2026-05-04 07:13 -33.89614 25.43506 5258 ft 274 kts 50°
2026-05-04 07:14 -33.85477 25.50905 3822 ft 260 kts 50°
2026-05-04 07:14 -33.84439 25.52670 3462 ft 257 kts 50°
2026-05-04 07:15 -33.83398 25.54400 3118 ft 254 kts 50°
2026-05-04 07:15 -33.82375 25.56058 2881 ft 246 kts 50°
2026-05-04 07:15 -33.81395 25.57719 2602 ft 242 kts 57°
2026-05-04 07:15 -33.80587 25.59451 2555 ft 231 kts 59°
2026-05-04 07:16 -33.79856 25.61110 2465 ft 219 kts 65°
2026-05-04 07:16 -33.79585 25.62872 2312 ft 211 kts 88°
2026-05-04 07:16 -33.79601 25.64590 2216 ft 201 kts 94°
2026-05-04 07:16 -33.80044 25.66138 2042 ft 192 kts 122°
2026-05-04 07:17 -33.80717 25.67463 1995 ft 180 kts 120°
2026-05-04 07:17 -33.81337 25.68735 1992 ft 175 kts 120°
2026-05-04 07:17 -33.81959 25.69977 1997 ft 171 kts 127°
2026-05-04 07:17 -33.82890 25.70821 2007 ft 169 kts 153°
2026-05-04 07:18 -33.83927 25.71521 2000 ft 175 kts 150°
2026-05-04 07:18 -33.84980 25.72260 2001 ft 176 kts 150°
2026-05-04 07:18 -33.86028 25.72998 1985 ft 172 kts 150°
2026-05-04 07:18 -33.87049 25.73718 1975 ft 169 kts 150°
2026-05-04 07:19 -33.88068 25.74440 1997 ft 171 kts 150°
2026-05-04 07:19 -33.89186 25.74877 1977 ft 170 kts 184°
2026-05-04 07:19 -33.90345 25.74642 1998 ft 170 kts 191°
2026-05-04 07:19 -33.91496 25.74382 1995 ft 171 kts 200°
2026-05-04 07:20 -33.92360 25.73512 2016 ft 165 kts 240°
2026-05-04 07:20 -33.92969 25.72328 2004 ft 166 kts 237°
2026-05-04 07:20 -33.93587 25.71199 1964 ft 156 kts 238°
2026-05-04 07:20 -33.94142 25.70135 1807 ft 146 kts 237°
2026-05-04 07:22 -33.97852 25.62964 452 ft 140 kts 238°
2026-05-04 07:22 -33.98360 25.61983 273 ft 138 kts 238°
2026-05-04 07:23 -33.98843 25.61050 217 ft 117 kts 237°
2026-05-04 07:23 -33.99164 25.60431 207 ft 57 kts 238°
2026-05-04 07:23 -33.99273 25.60189 212 ft 23 kts 271°
2026-05-04 07:23 -33.99154 25.60085 211 ft 22 kts
2026-05-04 07:24 -33.99057 25.60219 214 ft 21 kts 56°
2026-05-04 07:24 -33.98968 25.60384 213 ft 28 kts 57°
2026-05-04 07:24 -33.98856 25.60594 214 ft 30 kts 57°
2026-05-04 07:24 -33.98744 25.60800 215 ft 29 kts 57°
2026-05-04 07:25 -33.98641 25.60996 214 ft 27 kts 58°
2026-05-04 07:26 -33.98435 25.61257 215 ft 0 kts 327°